Alton, IL

11:38 AM CDT on July 20, 2017 (GMT -0500)
Saint Louis Regional

Weather History for KALN - November, 2011

Change the Weather History Date:

Tuesday, November 8, 2011

  Actual Average Record
Temperature  
Mean Temperature 62 °F -  
Max Temperature 66 °F 54 °F 82 °F (1999)
Min Temperature 59 °F 38 °F 27 °F (2013)
Degree Days  
Heating Degree Days 2    
Growing Degree Days 12 (Base 50)    
Moisture  
Dew Point 56 °F    
Average Humidity 85    
Maximum Humidity 100    
Minimum Humidity 77    
Precipitation  
Precipitation 0.00 in - - ()
Sea Level Pressure  
Sea Level Pressure 29.92 in    
Wind  
Wind Speed 11 mph (SE)    
Max Wind Speed 20 mph    
Max Gust Speed 28 mph    
Visibility 10 miles    
Events Rain    
Averages and records for this station are not official NWS values.
T = Trace of Precipitation, MM = Missing Value Source: NWS Daily Summary

Daily Weather History Graph

Daily Weather History Graph

Search for Another Location

Airport or City:

Trip Planner

Search our weather history database for the weather conditions in past years. The results will help you decide how hot, cold, wet, or windy it might be!

Date:

Astronomy

Nov. 08, 2011 Rise Set
Actual Time 6:34 AM CST 4:52 PM CST
Civil Twilight 6:06 AM CST 5:20 PM CST
Nautical Twilight 5:34 AM CST 5:52 PM CST
Astronomical Twilight 5:03 AM CST 6:23 PM CST
Moon 3:32 PM CST (11/8) 4:34 AM CST (11/8)
Length of Visible Light 11h 13m
Length of Day
10h 17m
Waxing Gibbous, 96% of the Moon is Illuminated
Nov 8
Waxing Gibbous
Nov 10
Full
Nov 18
Last Quarter
Nov 25
New
Dec 2
First Quarter

Hourly Weather History & Observations

Time (CST) Temp. Dew Point Humidity Pressure Visibility Wind Dir Wind Speed Gust Speed Precip Events Conditions
12:15 AM 62.6 °F 55.4 °F 77% 30.03 in 10.0 mi SSE 10.4 mph 18.4 mph N/A   Clear
12:35 AM 60.8 °F 55.4 °F 82% 30.03 in 10.0 mi SSE 10.4 mph - N/A   Clear
12:55 AM 60.8 °F 53.6 °F 77% 30.02 in 10.0 mi SSE 10.4 mph - N/A   Clear
1:15 AM 60.8 °F 53.6 °F 77% 30.01 in 10.0 mi SE 9.2 mph - N/A   Clear
1:35 AM 60.8 °F 53.6 °F 77% 30.01 in 10.0 mi SSE 9.2 mph - N/A   Clear
1:55 AM 60.8 °F 53.6 °F 77% 30.01 in 10.0 mi SE 9.2 mph - N/A   Mostly Cloudy
2:15 AM 60.8 °F 53.6 °F 77% 30.00 in 10.0 mi SE 9.2 mph 16.1 mph N/A   Mostly Cloudy
2:35 AM 60.8 °F 53.6 °F 77% 29.98 in 10.0 mi SE 9.2 mph - N/A   Overcast
2:55 AM 59.0 °F 53.6 °F 82% 29.98 in 10.0 mi SE 9.2 mph - N/A   Mostly Cloudy
3:15 AM 59.0 °F 53.6 °F 82% 29.96 in 10.0 mi ESE 11.5 mph - N/A   Scattered Clouds
3:35 AM 59.0 °F 53.6 °F 82% 29.96 in 10.0 mi SE 11.5 mph - N/A   Clear
3:55 AM 59.0 °F 53.6 °F 82% 29.96 in 10.0 mi SE 11.5 mph 17.3 mph N/A   Mostly Cloudy
4:15 AM 59.0 °F 53.6 °F 82% 29.96 in 10.0 mi SE 9.2 mph - N/A Rain Rain
4:35 AM 59.0 °F 53.6 °F 82% 29.96 in 10.0 mi SE 10.4 mph - N/A   Overcast
4:55 AM 60.8 °F 53.6 °F 77% 29.95 in 10.0 mi SE 10.4 mph 17.3 mph N/A   Light Drizzle
5:15 AM 60.8 °F 53.6 °F 77% 29.95 in 10.0 mi SE 12.7 mph - N/A Rain Light Rain
5:35 AM 60.8 °F 53.6 °F 77% 29.94 in 10.0 mi SE 12.7 mph 18.4 mph N/A Rain Light Rain
5:55 AM 60.8 °F 53.6 °F 77% 29.93 in 10.0 mi SE 12.7 mph 17.3 mph N/A Rain Rain
6:50 AM 60.8 °F 53.6 °F 77% 29.95 in 10.0 mi SSE 17.3 mph - N/A   Overcast
7:50 AM 60.8 °F 53.6 °F 77% 29.96 in 10.0 mi South 13.8 mph 20.7 mph N/A   Overcast
8:50 AM 62.6 °F 55.4 °F 77% 29.96 in 10.0 mi South 16.1 mph 25.3 mph N/A   Overcast
9:50 AM 64.4 °F 59.0 °F 83% 29.93 in 10.0 mi South 17.3 mph 27.6 mph N/A   Overcast
10:50 AM 64.4 °F 59.0 °F 83% 29.94 in 10.0 mi South 13.8 mph - N/A   Overcast
11:50 AM 66.2 °F 59.0 °F 78% 29.94 in 10.0 mi WSW 9.2 mph - N/A   Mostly Cloudy
12:50 PM 64.4 °F 59.0 °F 83% 29.93 in 10.0 mi West 9.2 mph - N/A Rain Light Rain
1:50 PM 64.4 °F 59.0 °F 83% 29.74 in 10.0 mi NW 4.6 mph - N/A Rain Light Rain
2:50 PM 60.8 °F 59.0 °F 94% 29.94 in 3.0 mi WNW 6.9 mph - N/A Rain Rain
3:50 PM 60.8 °F 59.0 °F 94% 29.96 in 4.0 mi Calm Calm - N/A Rain Light Rain
4:50 PM 59.0 °F 59.0 °F 100% 29.88 in 10.0 mi ESE 11.5 mph - N/A   Mostly Cloudy
5:50 PM 59.0 °F 57.2 °F 94% 29.90 in 10.0 mi ESE 11.5 mph - N/A   Clear
6:50 PM 59.0 °F 57.2 °F 94% 29.91 in 7.0 mi ESE 6.9 mph - N/A   Scattered Clouds
7:50 PM 60.8 °F 59.0 °F 94% 29.92 in 7.0 mi South 6.9 mph - N/A Rain Rain
8:50 PM 60.8 °F 59.0 °F 94% 29.86 in 7.0 mi SE 19.6 mph - N/A Rain Rain
9:15 PM 60.8 °F 59.0 °F 94% 29.84 in 10.0 mi SE 13.8 mph 23.0 mph N/A Rain Light Rain
9:35 PM 60.8 °F 59.0 °F 94% 29.85 in 10.0 mi SSE 12.7 mph - N/A Rain Rain
9:55 PM 60.8 °F 59.0 °F 94% 29.85 in 10.0 mi SSE 9.2 mph 16.1 mph N/A Rain Light Rain
10:15 PM 60.8 °F 59.0 °F 94% 29.83 in 10.0 mi SE 4.6 mph - N/A   Light Drizzle
10:35 PM 60.8 °F 59.0 °F 94% 29.81 in 10.0 mi SE 12.7 mph - N/A   Scattered Clouds
10:55 PM 60.8 °F 59.0 °F 94% 29.80 in 10.0 mi ESE 12.7 mph - N/A   Scattered Clouds
11:15 PM 60.8 °F 59.0 °F 94% 29.78 in 10.0 mi ESE 13.8 mph - N/A   Mostly Cloudy
11:35 PM 60.8 °F 59.0 °F 94% 29.78 in 10.0 mi ESE 12.7 mph - N/A   Overcast
11:55 PM 60.8 °F 59.0 °F 94% 29.76 in 10.0 mi SE 13.8 mph 19.6 mph N/A   Overcast